Weather History for Panama City, FL

Change the Weather History Date:

Saturday, December 21, 2013

  Actual Average Record
Temperature  
Mean Temperature 72 °F -  
Max Temperature 78 °F - 78 °F (2013)
Min Temperature 65 °F - 35 °F (2012)
Degree Days  
Heating Degree Days 0    
Cooling Degree Days 7    
Growing Degree Days 21 (Base 50)    
Moisture  
Dew Point 70 °F    
Average Humidity 91    
Maximum Humidity 100    
Minimum Humidity 82    
Precipitation  
Precipitation T in - 1.88 in (2011)
Sea Level Pressure  
Sea Level Pressure 30.04 in    
Wind  
Wind Speed 10 mph (SE)    
Max Wind Speed 23 mph    
Max Gust Speed 62 mph    
Visibility 10 miles    
Events      
T = Trace of Precipitation, MM = Missing Value Source: NWS Daily Summary

Daily Weather History Graph

Daily Weather History Graph

Search for Another Location

Airport:

Trip Planner

Search our weather history database for the weather conditions in past years. The results will help you decide how hot, cold, wet, or windy it might be!

Date:

Astronomy

Dec. 21, 2013 Rise Set
Actual Time 7:35 AM EST 5:47 PM EST
Civil Twilight 7:09 AM EST 6:13 PM EST
Nautical Twilight 6:39 AM EST 6:43 PM EST
Astronomical Twilight 6:09 AM EST 7:12 PM EST
Moon 9:47 PM EST (12/21) 10:15 AM EST (12/21)
Length of Visible Light 11h 04m
Length of Day
10h 11m
Waning Gibbous, 84% of the Moon is Illuminated
Dec 21
Waning Gibbous
Dec 25
Last Quarter
Jan 1
New
Jan 7
First Quarter
Jan 15
Full

Hourly Weather History & Observations

Time (EST) Temp. Dew Point Humidity Pressure Visibility Wind Dir Wind Speed Gust Speed Precip Events Conditions
12:53 AM 64.9 °F 64.9 °F 100% 30.10 in 10.0 mi East 4.6 mph - N/A   Mostly Cloudy
1:05 AM 64.4 °F 64.4 °F 100% 30.06 in 10.0 mi East 4.6 mph - N/A   Overcast
1:26 AM 66.2 °F 66.2 °F 100% 30.05 in 10.0 mi East 5.8 mph - N/A   Overcast
1:53 AM 66.0 °F 66.0 °F 100% 30.09 in 10.0 mi East 8.1 mph - N/A   Overcast
2:53 AM 66.0 °F 64.9 °F 96% 30.08 in 10.0 mi ESE 5.8 mph - N/A   Overcast
3:53 AM 68.0 °F 64.9 °F 90% 30.06 in 10.0 mi East 5.8 mph - N/A   Overcast
4:53 AM 66.0 °F 64.0 °F 93% 30.05 in 10.0 mi East 3.5 mph - 0.00 in   Overcast
5:53 AM 66.9 °F 64.9 °F 93% 30.05 in 10.0 mi East 4.6 mph - N/A   Overcast
6:49 AM 69.8 °F 68.0 °F 94% 30.02 in 10.0 mi ESE 9.2 mph - N/A   Overcast
6:53 AM 70.0 °F 68.0 °F 93% 30.05 in 10.0 mi ESE 10.4 mph - N/A   Overcast
7:53 AM 70.0 °F 69.1 °F 97% 30.06 in 10.0 mi SE 9.2 mph - N/A   Mostly Cloudy
8:04 AM 69.8 °F 69.8 °F 100% 30.02 in 10.0 mi SE 9.2 mph - N/A   Scattered Clouds
8:22 AM 71.6 °F 69.8 °F 94% 30.02 in 10.0 mi SE 11.5 mph - N/A   Mostly Cloudy
8:53 AM 72.0 °F 70.0 °F 93% 30.06 in 10.0 mi SSE 15.0 mph 20.7 mph N/A   Mostly Cloudy
9:53 AM 73.9 °F 71.1 °F 91% 30.07 in 10.0 mi SSE 13.8 mph 20.7 mph N/A   Mostly Cloudy
10:53 AM 75.9 °F 72.0 °F 87% 30.07 in 10.0 mi SE 18.4 mph 24.2 mph N/A   Overcast
11:02 AM 75.2 °F 71.6 °F 89% 30.04 in 10.0 mi SE 18.4 mph 24.2 mph N/A   Overcast
11:53 AM 77.0 °F 72.0 °F 84% 30.05 in 10.0 mi SE 18.4 mph 24.2 mph N/A   Overcast
12:20 PM 78.8 °F 71.6 °F 78% 30.01 in 10.0 mi SE 18.4 mph 24.2 mph N/A   Overcast
12:53 PM 77.0 °F 72.0 °F 84% 30.03 in 10.0 mi SSE 20.7 mph 27.6 mph N/A   Overcast
1:53 PM 75.9 °F 72.0 °F 87% 30.00 in 10.0 mi SE 17.3 mph 25.3 mph N/A   Overcast
2:10 PM 75.2 °F 71.6 °F 89% 29.96 in 9.0 mi SSE 17.3 mph 28.8 mph N/A   Overcast
2:53 PM 75.0 °F 72.0 °F 90% 29.99 in 9.0 mi SE 18.4 mph 28.8 mph N/A   Overcast
3:53 PM 75.9 °F 73.0 °F 91% 29.99 in 10.0 mi SE 16.1 mph 24.2 mph N/A   Mostly Cloudy
4:53 PM 75.0 °F 72.0 °F 90% 30.00 in 9.0 mi SE 15.0 mph 20.7 mph N/A   Mostly Cloudy
5:53 PM 75.0 °F 73.0 °F 94% 30.00 in 10.0 mi SE 12.7 mph 21.9 mph N/A   Overcast
6:53 PM 73.9 °F 73.0 °F 97% 30.01 in 10.0 mi SE 16.1 mph - N/A   Overcast
7:53 PM 73.9 °F 73.0 °F 97% 30.03 in 10.0 mi SE 16.1 mph 26.5 mph N/A   Overcast
8:53 PM 73.9 °F 73.0 °F 97% 30.03 in 9.0 mi SE 17.3 mph 25.3 mph N/A   Mostly Cloudy
9:53 PM 73.0 °F 73.0 °F 100% 30.04 in 9.0 mi SE 18.4 mph 25.3 mph N/A   Mostly Cloudy
10:53 PM 73.0 °F 72.0 °F 96% 30.05 in 9.0 mi SE 15.0 mph - N/A   Overcast
11:53 PM 73.0 °F 72.0 °F 96% 30.04 in 8.0 mi SE 16.1 mph 23.0 mph N/A   Overcast